Weather History for Owensboro, KY

Change the Weather History Date:

Monday, February 18, 2013

  Actual Average Record
Temperature  
Mean Temperature 48 °F -  
Max Temperature 63 °F 50 °F 73 °F (1961)
Min Temperature 34 °F 28 °F -2 °F (1958)
Degree Days  
Heating Degree Days 16    
Moisture  
Dew Point 37 °F    
Average Humidity 70    
Maximum Humidity 100    
Minimum Humidity 34    
Precipitation  
Precipitation 0.58 in - - ()
Sea Level Pressure  
Sea Level Pressure 29.90 in    
Wind  
Wind Speed 16 mph (South)    
Max Wind Speed 28 mph    
Max Gust Speed 37 mph    
Visibility 8 miles    
Events Rain    
Averages and records for this station are not official NWS values.
T = Trace of Precipitation, MM = Missing Value Source: NWS Daily Summary

Daily Weather History Graph

Daily Weather History Graph

Search for Another Location

Airport:

Trip Planner

Search our weather history database for the weather conditions in past years. The results will help you decide how hot, cold, wet, or windy it might be!

Date:

Astronomy

Feb. 18, 2013 Rise Set
Actual Time 6:34 AM CST 5:31 PM CST
Civil Twilight 6:07 AM CST 5:58 PM CST
Nautical Twilight 5:37 AM CST 6:28 PM CST
Astronomical Twilight 5:06 AM CST 6:59 PM CST
Moon 11:20 AM CST (2/18) 1:10 AM CST (2/18)
Length of Visible Light 11h 50m
Length of Day
10h 56m
First Quarter, 58% of the Moon is Illuminated
Feb 18
First Quarter
Feb 25
Full
Mar 4
Last Quarter
Mar 11
New
Mar 19
First Quarter

Hourly Weather History & Observations

Time (CST) Temp. Windchill Dew Point Humidity Pressure Visibility Wind Dir Wind Speed Gust Speed Precip Events Conditions
12:56 AM 34.9 °F 27.1 °F 22.1 °F 60% 30.12 in 10.0 mi SSE 10.4 mph - N/A   Clear
1:56 AM 34.9 °F 26.6 °F 22.1 °F 60% 30.09 in 10.0 mi SSE 11.5 mph - N/A   Clear
2:56 AM 34.9 °F 26.2 °F 23.0 °F 62% 30.08 in 10.0 mi SSE 12.7 mph - N/A   Clear
3:56 AM 36.9 °F 28.2 °F 23.0 °F 57% 30.06 in 10.0 mi SSE 13.8 mph - N/A   Clear
5:56 AM 36.9 °F 30.1 °F 25.2 °F 63% 30.06 in 10.0 mi SSE 9.2 mph - N/A   Clear
6:56 AM 37.9 °F 30.9 °F 26.1 °F 62% 30.06 in 10.0 mi South 10.4 mph - N/A   Clear
7:56 AM 43.0 °F 36.0 °F 30.0 °F 60% 30.07 in 10.0 mi South 13.8 mph - N/A   Clear
8:56 AM 47.8 °F - 34.9 °F 61% 30.05 in 10.0 mi South 18.4 mph 25.3 mph N/A   Clear
9:56 AM 52.0 °F - 37.9 °F 59% 30.03 in 10.0 mi South 21.9 mph - N/A   Scattered Clouds
10:56 AM 55.9 °F - 38.8 °F 53% 30.00 in 10.0 mi SSW 25.3 mph 32.2 mph N/A   Mostly Cloudy
11:56 AM 59.9 °F - 36.0 °F 41% 29.97 in 10.0 mi SW 27.6 mph 34.5 mph N/A   Mostly Cloudy
12:56 PM 61.9 °F - 34.0 °F 35% 29.94 in 10.0 mi SSW 25.3 mph 35.7 mph N/A   Scattered Clouds
1:56 PM 63.0 °F - 34.0 °F 34% 29.88 in 10.0 mi SSW 21.9 mph 29.9 mph N/A   Scattered Clouds
2:56 PM 59.9 °F - 32.9 °F 36% 29.87 in 10.0 mi SSW 27.6 mph 34.5 mph N/A   Mostly Cloudy
3:56 PM 57.9 °F - 36.0 °F 44% 29.85 in 10.0 mi South 12.7 mph - N/A   Mostly Cloudy
5:56 PM 50.0 °F - 43.9 °F 79% 29.81 in 6.0 mi South 20.7 mph 36.8 mph 0.07 in Rain Rain
6:56 PM 50.0 °F - 43.9 °F 79% 29.77 in 5.0 mi South 17.3 mph 27.6 mph 0.02 in Rain Light Rain
7:56 PM 48.9 °F - 45.0 °F 86% 29.77 in 3.0 mi South 13.8 mph 20.7 mph 0.18 in Rain Rain
8:56 PM 48.9 °F - 45.0 °F 86% 29.74 in 5.0 mi South 27.6 mph 35.7 mph 0.06 in Rain Light Rain
9:33 PM 48.2 °F - 46.4 °F 93% 29.78 in 2.0 mi SSW 20.7 mph - 0.08 in Rain Heavy Rain
9:45 PM 48.2 °F - 46.4 °F 93% 29.79 in 3.0 mi SW 18.4 mph - 0.10 in Rain Rain
9:56 PM 47.8 °F - 45.9 °F 93% 29.80 in 2.0 mi WSW 18.4 mph 31.1 mph 0.18 in Rain Heavy Rain
10:10 PM 46.4 °F 39.8 °F 46.4 °F 100% 29.77 in 3.0 mi South 16.1 mph - 0.03 in Rain Rain
10:15 PM 46.4 °F 39.2 °F 46.4 °F 100% 29.74 in 3.0 mi South 18.4 mph - 0.03 in Rain Light Rain
10:31 PM 46.4 °F 38.7 °F 46.4 °F 100% 29.72 in 10.0 mi South 20.7 mph - 0.04 in Rain Light Rain
10:56 PM 47.8 °F - 45.9 °F 93% 29.73 in 10.0 mi South 18.4 mph - 0.04 in   Mostly Cloudy
11:56 PM 47.8 °F - 46.9 °F 97% 29.76 in 2.0 mi SW 18.4 mph - 0.03 in Rain Rain